Voltar ao catálogo

COSMOS 2499 DEB

AtivoPO
NORAD 55717·DEBRIS·🇷🇺 Russia

Lançado May 23, 2014 de Plesetsk Cosmodrome

Loading…

Próximas Passagens (próximas 24 horas)

TLE

AtualizadoSource: Space-Track

Época: Sep 14, 2026, 12:18 UTC

1 55717U 14028AD  26257.51258681  .00002265  00000-0  81705-2 0  9996
2 55717  82.3633 179.6983 0198307 145.8086 215.5977 12.87699076172680

Acompanhe COSMOS 2499 DEB em tempo real com AllMySat

Download on the App Store